| time (UTC) | temp F | wind direction | speed knots | gust knots | rain 1hr in | rain 24hr in | rain mn in | humidity % | barometer mb |
| 20260503221554 | 85 | 224 | 0.0 | 0.9 | 0.00 | 0.00 | 0.00 | 30 | 1015.2 |
| 20260503220042 | 86 | 156 | 0.0 | 4.3 | 0.00 | 0.00 | 0.00 | 30 | 1015.4 |
| 20260503214539 | 87 | 165 | 0.0 | 1.7 | 0.00 | 0.00 | 0.00 | 31 | 1015.5 |
| 20260503213042 | 87 | 250 | 0.0 | 1.7 | 0.00 | 0.00 | 0.00 | 30 | 1015.7 |
| 20260503211538 | 87 | 278 | 0.0 | 0.9 | 0.00 | 0.00 | 0.00 | 28 | 1016.0 |
| 20260503210034 | 87 | 222 | 0.0 | 1.7 | 0.00 | 0.00 | 0.00 | 29 | 1016.3 |
| 20260503204533 | 87 | 70 | 0.0 | 1.7 | 0.00 | 0.00 | 0.00 | 30 | 1016.5 |
| 20260503203038 | 87 | 156 | 0.0 | 1.7 | 0.00 | 0.00 | 0.00 | 29 | 1016.9 |
| 20260503201528 | 87 | 71 | 0.0 | 0.9 | 0.00 | 0.00 | 0.00 | 30 | 1017.0 |
| 20260503200028 | 87 | 329 | 0.0 | 0.9 | 0.00 | 0.00 | 0.00 | 29 | 1017.2 |
| 20260503194525 | 88 | 272 | 0.0 | 0.9 | 0.00 | 0.00 | 0.00 | 29 | 1017.6 |
| 20260503193022 | 87 | 151 | 0.0 | 0.9 | 0.00 | 0.00 | 0.00 | 32 | 1017.8 |
| 20260503191527 | 87 | 142 | 0.0 | 1.7 | 0.00 | 0.00 | 0.00 | 32 | 1018.0 |
| 20260503190018 | 86 | 248 | 0.0 | 1.7 | 0.00 | 0.00 | 0.00 | 30 | 1018.3 |
| 20260503184517 | 86 | 256 | 0.0 | 3.5 | 0.00 | 0.00 | 0.00 | 30 | 1018.5 |
| 20260503183014 | 86 | 248 | 0.0 | 1.7 | 0.00 | 0.00 | 0.00 | 32 | 1018.7 |
| 20260503181507 | 85 | 203 | 0.0 | 1.7 | 0.00 | 0.00 | 0.00 | 35 | 1019.0 |
| 20260503180006 | 84 | 259 | 0.0 | 1.7 | 0.00 | 0.00 | 0.00 | 35 | 1019.3 |
| 20260503174503 | 84 | 240 | 0.0 | 0.9 | 0.00 | 0.00 | 0.00 | 39 | 1019.6 |
| 20260503173111 | 83 | 229 | 0.0 | 0.9 | 0.00 | 0.00 | 0.00 | 41 | 1019.8 |
| 20260503171559 | 82 | 236 | 0.0 | 1.7 | 0.00 | 0.00 | 0.00 | 42 | 1020.1 |
| 20260503110106 | 56 | 224 | 0.0 | 0.0 | 0.00 | 0.00 | 0.00 | 48 | 1019.4 |
| 20260503081537 | 56 | 224 | 0.0 | 0.0 | 0.00 | 0.00 | 0.00 | 57 | 1019.1 |
| 20260503071529 | 58 | 224 | 0.0 | 0.0 | 0.00 | 0.00 | 0.00 | 62 | 1019.5 |
| 20260503054515 | 62 | 222 | 0.0 | 0.0 | 0.00 | 0.00 | 0.00 | 60 | 1019.5 |
| 20260503053013 | 62 | 222 | 0.0 | 0.0 | 0.00 | 0.00 | 0.00 | 60 | 1019.5 |
| 20260503051510 | 62 | 222 | 0.0 | 0.0 | 0.00 | 0.00 | 0.00 | 59 | 1019.3 |
| 20260503050020 | 63 | 222 | 0.0 | 0.0 | 0.00 | 0.00 | 0.00 | 59 | 1019.2 |
| 20260503044504 | 63 | 222 | 0.0 | 0.0 | 0.00 | 0.00 | 0.00 | 58 | 1019.2 |
| 20260503043105 | 63 | 222 | 0.0 | 0.0 | 0.00 | 0.00 | 0.00 | 57 | 1019.3 |
| 20260503043004 | 63 | 222 | 0.0 | 0.0 | 0.00 | 0.00 | 0.00 | 57 | 1019.2 |
| 20260503041555 | 63 | 224 | 0.0 | 0.0 | 0.00 | 0.00 | 0.00 | 57 | 1019.2 |
| 20260503034546 | 64 | 224 | 0.0 | 0.0 | 0.00 | 0.00 | 0.00 | 54 | 1019.2 |
| 20260503033042 | 64 | 224 | 0.0 | 0.0 | 0.00 | 0.00 | 0.00 | 54 | 1019.2 |
| 20260503031541 | 64 | 224 | 0.0 | 0.0 | 0.00 | 0.00 | 0.00 | 53 | 1019.2 |
| 20260503030044 | 65 | 224 | 0.0 | 0.0 | 0.00 | 0.00 | 0.00 | 53 | 1018.9 |
| 20260503024528 | 65 | 224 | 0.0 | 0.0 | 0.00 | 0.00 | 0.00 | 53 | 1018.8 |
| 20260503023026 | 65 | 224 | 0.0 | 0.0 | 0.00 | 0.00 | 0.00 | 52 | 1018.7 |
| 20260503021525 | 66 | 224 | 0.0 | 0.0 | 0.00 | 0.00 | 0.00 | 52 | 1018.6 |
| 20260503020024 | 66 | 224 | 0.0 | 0.0 | 0.00 | 0.00 | 0.00 | 52 | 1018.4 |
| 20260503014524 | 67 | 224 | 0.0 | 0.0 | 0.00 | 0.00 | 0.00 | 50 | 1018.3 |
| 20260503013024 | 68 | 224 | 0.0 | 0.0 | 0.00 | 0.00 | 0.00 | 49 | 1018.3 |
| 20260503011518 | 69 | 224 | 0.0 | 0.0 | 0.00 | 0.00 | 0.00 | 47 | 1018.2 |
| 20260503010014 | 70 | 224 | 0.0 | 0.0 | 0.00 | 0.00 | 0.00 | 45 | 1018.1 |
| 20260503004511 | 71 | 224 | 0.0 | 0.0 | 0.00 | 0.00 | 0.00 | 43 | 1018.1 |
| 20260503003006 | 72 | 224 | 0.0 | 0.0 | 0.00 | 0.00 | 0.00 | 42 | 1018.0 |
| 20260503001500 | 73 | 224 | 0.0 | 0.0 | 0.00 | 0.00 | 0.00 | 42 | 1018.1 |
| 20260503000057 | 73 | 224 | 0.0 | 0.0 | 0.00 | 0.00 | 0.00 | 41 | 1018.1 |
| 20260502234554 | 74 | 224 | 0.0 | 0.0 | 0.00 | 0.00 | 0.00 | 40 | 1018.2 |
| 20260502233049 | 75 | 37 | 0.0 | 0.0 | 0.00 | 0.00 | 0.00 | 37 | 1018.2 |
| 20260502231543 | 76 | 40 | 0.0 | 0.0 | 0.00 | 0.00 | 0.00 | 39 | 1018.2 |
| 20260502230039 | 76 | 40 | 0.0 | 0.0 | 0.00 | 0.00 | 0.00 | 38 | 1018.2 |
| 20260502224534 | 77 | 40 | 0.0 | 0.9 | 0.00 | 0.00 | 0.00 | 36 | 1018.3 |
| 20260502223030 | 78 | 150 | 0.0 | 0.0 | 0.00 | 0.00 | 0.00 | 35 | 1018.3 |